LiveATC.Net - Listen to live air traffic control over the Internet!


ICAO: SPST  IATA: TPP   Airport: Cadete FAP Guillermo del Castillo Paredes Airport
City: Tarapoto
Country: Peru   Continent: South America
SPST METAR Weather: SPST 221800Z 25004KT 9999 SCT020 SCT080 26/24 Q1014 RMK BIRD HAZARD RWY 17/35 PP000
SPST Flight Activity (FlightAware)

SPST Tower
Feed Status: UP   Listeners: 0
Listen in your browser - HTML5 player (in browser, HTML5)
Click here to listen with your own player (launches your MP3 player)
Archive Access: SPST Tower
FacilityFrequency
Tarapoto Tower118.400

NOTICE

Unauthorized use prohibited. See LiveATC.net Terms of Service


Airport/ARTCC Code
Frequency Search
(e.g., 124.400, 128.75)
Site-wide search
 


Browse Feeds
Top 50 Feeds
Coverage Map
Bad Weather Areas

LiveATC FAQ
Offer LiveATC feed
Contact LiveATC.net
Press Inquiries

LiveATC on iPhone
LiveATC on Android

Windows Phone
Windows 8/10

LiveATC Mobile
(Mobile browser)

ATC Audio Archives
Interesting Recordings

LiveATC Forums


Home Page
About LiveATC.net
Make a Donation
Terms of Use
Privacy Policy

Canadian Air Freqs

AIRMETs/SIGMETs

FAA Airport Status
Nat'l Airspace Status
Arrival Demand Charts


Server Software By:
Icecast.org
Liquidsoap